Regional Weather Roundup
Issued by NWS

Home | Current Version | Previous Version | Graphics & Text | Print | Product List | Glossary On
Versions: 1 2 3 4 5 6 7 8 9 10 11 12 13 14 15 16 17 18 19 20 21 22 23 24 25 26 27 28 29 30 31 32 33 34 35 36 37 38 39 40 41 42 43 44 45 46 47 48 49 50
509
ASUS45 KCYS 170010
RWRWY

WYOMING REGIONAL WEATHER ROUNDUP
NATIONAL WEATHER SERVICE CHEYENNE WY
500 PM MST TUE JAN 16 2018

NOTE:  "FAIR" INDICATES FEW OR NO CLOUDS BELOW 12,000 FEET
WITH NO SIGNIFICANT WEATHER AND/OR OBSTRUCTIONS TO VISIBILITY.

WYZ001-170100-
YELLOWSTONE NATIONAL PARK

CITY           SKY/WX    TMP DP  RH WIND       PRES   REMARKS
LK YELLOWSTONE   N/A      8   4  83 CALM      30.31R
6HR MIN TEMP:   3; 6HR MAX TEMP:  19;

W YELLOWSTONE  NOT AVBL

$$
WYZ002>013-054>058-071-098>099-170100-
NORTHERN WYOMING

CITY           SKY/WX    TMP DP  RH WIND       PRES   REMARKS
JACKSON        FAIR      20  11  68 SW3       30.34S
CODY           FAIR      21  12  68 CALM      30.18S
GREYBULL       FAIR      11   4  73 NW6       30.22F WCI   1
6HR MIN TEMP:   1; 6HR MAX TEMP:  18;

WORLAND        FAIR      13   6  74 CALM      30.20F
6HR MIN TEMP:   2; 6HR MAX TEMP:  20;

SHERIDAN       FAIR       7   0  73 SW7       30.17R WCI  -5
6HR MIN TEMP:   4; 6HR MAX TEMP:  17;

BUFFALO        FAIR      29  16  58 S6        30.14R WCI  23
6HR MIN TEMP:  20; 6HR MAX TEMP:  35;

GILLETTE         N/A    N/A N/A N/A MISG      30.18S
HULETT         FAIR      32   1  27 SW14      30.19F WCI  22
NEWCASTLE      FAIR      19   3  49 CALM      30.27S

$$
WYZ014>020-022>026-101>103-170100-
CENTRAL WYOMING

CITY           SKY/WX    TMP DP  RH WIND       PRES   REMARKS
BIG PINEY      FAIR      25  13  60 NE8       30.29S WCI  16
6HR MIN TEMP:  22; 6HR MAX TEMP:  31;

PINEDALE       FAIR      19  10  68 W6        30.30S WCI  11
DUBOIS         FAIR      32   1  27 NW17      30.18R WCI  21
LANDER         FAIR      20  14  77 N3        30.21S
6HR MIN TEMP:  18; 6HR MAX TEMP:  24;

RIVERTON       FAIR      18  11  74 NE5       30.23S WCI  11
6HR MIN TEMP:  16; 6HR MAX TEMP:  24;

CASPER         FAIR      33   5  30 SW14      30.19F WCI  23
6HR MIN TEMP:  28; 6HR MAX TEMP:  37;

DOUGLAS        FAIR      19   8  62 SE7       30.23F WCI  10
6HR MIN TEMP:   9; 6HR MAX TEMP:  25;


$$
WYZ021-027>030-104>119-170100-
SOUTHERN WYOMING

CITY           SKY/WX    TMP DP  RH WIND       PRES   REMARKS
EVANSTON       FAIR      34  14  43 S3        30.27S
6HR MIN TEMP:  23; 6HR MAX TEMP:  36;

FORT BRIDGER   FAIR      32  11  41 CALM      30.30F
ROCK SPRINGS   FAIR      27   4  37 W9        30.28R WCI  18
6HR MIN TEMP:  17; 6HR MAX TEMP:  31;

DIXON            N/A     31  10  40 CALM      30.32S
RAWLINS        FAIR      30  -2  25 SW5       30.26S WCI  25
6HR MIN TEMP:  22; 6HR MAX TEMP:  35;

SARATOGA       FAIR      27   0  31 S5        30.26F WCI  21
LARAMIE        FAIR      27  -3  27 NE7       30.22F WCI  19
6HR MIN TEMP:  23; 6HR MAX TEMP:  36;

CHEYENNE       FAIR      23  -3  32 SW13      30.25F WCI  11
6HR MIN TEMP:  23; 6HR MAX TEMP:  33;

TORRINGTON     FAIR      16   8  71 E9        30.29F WCI   4
6HR MIN TEMP:   8; 6HR MAX TEMP:  23;


$$




USA.gov is the U.S. government's official web portal to all federal, state and local government web resources and services.